Starlink 1107

operational
NORAD ID: 44972 Int'l Des: 2020-001 Owner: SPXS Country: US Constellation: starlink
LEOCIRCULAR

Starlink 1107について

説明を読み込み中...

リアルタイム位置

3D地球を読み込み中...

次回通過

高度履歴

Altitude vs Time

uPlot chart will show altitude changes over time

軌道要素

1 44972U 20001BL 25312.91667823 .00263329 00000-0 18901-2 0 9990
2 44972 53.0069 39.4087 0006316 334.5334 171.7095 15.72320813 6001
Epoch: Nov 8, 2025 • Age: 20 hours

現在のステータス

高度 363.8 km
速度 7.69 km/s
衛星直下点 -35.60°S, 74.04°W
打ち上げ日 Jan 7, 2020
運用期間 5.8 years
タイプ internet

技術仕様

分類 Payload
質量 260.00 kg
乾燥質量 248.00 kg
総質量 260.00 kg
長さ 0.20 m
直径 2.80 m
スパン 9.00 m
形状 Box + pan
製造者 SPXS
バスタイプ Starlink
フェーズステータス In Orbit
所有者/国 SPXS/US

大規模コンステレーション

Loading constellations...